Weather History for PAFB - October, 2012

Change the Weather History Date:

Tuesday, October 30, 2012

  Actual Average Record
Temperature  
Mean Temperature 6 °F -  
Max Temperature 15 °F 19 °F 42 °F (2002)
Min Temperature -2 °F 8 °F -5 °F (2008)
Degree Days  
Heating Degree Days 58    
Moisture  
Dew Point 2 °F    
Average Humidity 81    
Maximum Humidity 92    
Minimum Humidity 68    
Precipitation  
Precipitation 0.00 in - - ()
Snow  
Snow 0.00 in - - ()
Snow Depth 6.00 in    
Sea Level Pressure  
Sea Level Pressure 30.06 in    
Wind  
Wind Speed 1 mph (East)    
Max Wind Speed 6 mph    
Max Gust Speed -    
Visibility 7 miles    
Events Fog , Snow    
Averages and records for this station are not official NWS values.
T = Trace of Precipitation, MM = Missing Value Source: NWS Daily Summary

Daily Weather History Graph

Daily Weather History Graph

Search for Another Location

Airport or City:

Trip Planner

Search our weather history database for the weather conditions in past years. The results will help you decide how hot, cold, wet, or windy it might be!

Date:

Astronomy

Oct. 30, 2012 Rise Set
Actual Time 9:33 AM AKDT 5:33 PM AKDT
Civil Twilight 8:39 AM AKDT 6:27 PM AKDT
Nautical Twilight 7:40 AM AKDT 7:26 PM AKDT
Astronomical Twilight 6:43 AM AKDT 8:22 PM AKDT
Moon 5:26 PM AKDT (10/30) 11:08 AM AKDT (10/30)
Length of Visible Light 9h 48m
Length of Day
7h 59m
Full, 99% of the Moon is Illuminated
Oct 30
Full
Nov 6
Last Quarter
Nov 13
New
Nov 20
First Quarter
Nov 28
Full

Hourly Weather History & Observations

Time (AKDT) Temp. Windchill Dew Point Humidity Pressure Visibility Wind Dir Wind Speed Gust Speed Precip Events Conditions
12:56 AM 14.0 °F 8.2 °F 10.0 °F 84% 30.02 in 6.0 mi NE 3.5 mph - 0.00 in Snow Light Snow
1:56 AM 10.9 °F - 8.1 °F 88% 30.03 in 7.0 mi Calm Calm - 0.00 in   Overcast
2:56 AM 10.9 °F - 8.1 °F 88% 30.03 in 4.0 mi Calm Calm - 0.00 in Snow Light Snow
3:56 AM 7.0 °F - 3.9 °F 87% 30.04 in 9.0 mi Calm Calm - 0.00 in   Mostly Cloudy
4:56 AM 1.9 °F - -0.9 °F 88% 30.04 in 3.0 mi Calm Calm - N/A   Overcast
5:39 AM 1.4 °F - -2.2 °F 85% 30.01 in 10.0 mi Calm Calm - N/A   Overcast
5:56 AM 1.9 °F - -2.0 °F 83% 30.06 in 10.0 mi Calm Calm - N/A   Overcast
6:19 AM 1.4 °F - -2.2 °F 85% 30.02 in 7.0 mi Calm Calm - N/A   Mostly Cloudy
6:55 AM 3.2 °F - -2.2 °F 78% 30.06 in 7.0 mi Calm Calm - N/A   Mostly Cloudy
7:55 AM 1.4 °F - -2.2 °F 85% 30.07 in 7.0 mi Calm Calm - N/A   Mostly Cloudy
8:55 AM -0.4 °F - -5.8 °F 78% 30.07 in 7.0 mi Calm Calm - N/A   Mostly Cloudy
9:55 AM -2.2 °F - -7.6 °F 78% 30.09 in 7.0 mi Calm Calm - N/A   Mostly Cloudy
10:55 AM -0.4 °F - -5.8 °F 78% 30.09 in 7.0 mi Calm Calm - N/A Fog Mostly Cloudy
11:55 AM 1.4 °F - -2.2 °F 85% 30.09 in 7.0 mi Calm Calm - N/A   Mostly Cloudy
12:55 PM 3.2 °F - -0.4 °F 85% 30.08 in 7.0 mi Calm Calm - N/A   Scattered Clouds
1:55 PM 6.8 °F - 1.4 °F 79% 30.09 in 7.0 mi Calm Calm - N/A   Scattered Clouds
2:55 PM 12.2 °F - 6.8 °F 79% 30.07 in 7.0 mi West 2.3 mph - N/A   Scattered Clouds
3:55 PM 10.4 °F - 6.8 °F 85% 30.07 in 7.0 mi Variable 2.3 mph - N/A   Scattered Clouds
4:55 PM 14.0 °F - 6.8 °F 73% 30.06 in 7.0 mi West 2.3 mph - N/A   Scattered Clouds
5:55 PM 6.8 °F - 5.0 °F 92% 30.05 in 7.0 mi East 2.3 mph - N/A   Scattered Clouds
6:55 PM 5.0 °F - 1.4 °F 85% 30.05 in 7.0 mi Calm Calm - N/A   Partly Cloudy
7:55 PM 14.0 °F - 6.8 °F 73% 30.06 in 7.0 mi Variable 1.2 mph - N/A   Mostly Cloudy
8:55 PM 15.8 °F 8.6 °F 6.8 °F 68% 30.05 in 7.0 mi ENE 4.6 mph - N/A   Mostly Cloudy
9:55 PM 15.8 °F 8.6 °F 6.8 °F 68% 30.05 in 7.0 mi East 4.6 mph - N/A   Mostly Cloudy
10:56 PM 15.1 °F 6.4 °F 6.1 °F 68% 30.05 in 10.0 mi East 5.8 mph - N/A   Overcast
11:56 PM 10.9 °F 2.9 °F 5.0 °F 77% 30.04 in 10.0 mi SSE 4.6 mph - N/A   Overcast